EW9826 Weather Reports


Display with metric or nautical units.
time (UTC)temp
F
wind
direction
speed
MPH
gust
MPH
rain 1hr
in
rain 24hr
in
rain mn
in
humidity
%
barometer
mb
20260509222506 53 11 2.0 7.0 0.00 0.00 0.00 79 1017.2
20260509210007 55 4 1.0 3.0 0.00 0.00 0.00 70 1017.3
20260509205506 55 3 2.0 5.0 0.00 0.00 0.00 71 1017.1
20260509204006 56 3 2.0 3.0 0.00 0.00 0.00 71 1017.0
20260509203506 56 9 2.0 3.0 0.00 0.00 0.00 71 1017.0
20260509203007 56 9 2.0 3.0 0.00 0.00 0.00 70 1016.9
20260509202506 56 9 0.0 3.0 0.00 0.00 0.00 70 1016.9
20260509202006 57 9 1.0 3.0 0.00 0.00 0.00 69 1017.0
20260509201506 57 9 0.0 2.0 0.00 0.00 0.00 68 1017.1
20260509194006 58 9 1.0 3.0 0.00 0.00 0.00 67 1016.9
20260509193506 58 9 2.0 5.0 0.00 0.00 0.00 66 1016.9
20260509193006 59 9 2.0 3.0 0.00 0.00 0.00 66 1016.8
20260509192506 59 9 2.0 5.0 0.00 0.00 0.00 65 1016.8
20260509192006 59 9 2.0 5.0 0.00 0.00 0.00 64 1016.8
20260509191506 59 9 2.0 3.0 0.00 0.00 0.00 63 1016.8
20260509191006 60 9 2.0 6.0 0.00 0.00 0.00 63 1016.8
20260509190006 60 12 4.0 6.0 0.00 0.00 0.00 61 1016.8
20260509185505 60 329 3.0 6.0 0.00 0.00 0.00 61 1016.7
20260509185009 61 0 3.0 7.0 0.00 0.00 0.00 61 1016.7
20260509184507 61 14 4.0 6.0 0.00 0.00 0.00 60 1016.6
20260509184006 61 327 3.0 8.0 0.00 0.00 0.00 59 1016.6
20260509183506 61 1 3.0 7.0 0.00 0.00 0.00 58 1016.6
20260509183006 61 325 4.0 7.0 0.00 0.00 0.00 58 1016.6
20260509182506 61 4 3.0 7.0 0.00 0.00 0.00 57 1016.5
20260509181006 62 337 3.0 10.0 0.00 0.00 0.00 56 1016.3
20260509180006 63 355 3.0 10.0 0.00 0.00 0.00 54 1016.3
20260509174505 63 347 5.0 8.0 0.00 0.00 0.00 52 1016.4
20260509174006 63 355 5.0 12.0 0.00 0.00 0.00 51 1016.5
20260509173506 64 357 6.0 10.0 0.00 0.00 0.00 50 1016.5
20260509173006 64 350 5.0 8.0 0.00 0.00 0.00 49 1016.6
20260509172506 65 357 5.0 8.0 0.00 0.00 0.00 48 1016.6
20260509172006 65 0 2.0 7.0 0.00 0.00 0.00 48 1016.7
20260509171505 65 0 2.0 6.0 0.00 0.00 0.00 46 1016.7
20260509171006 65 355 3.0 7.0 0.00 0.00 0.00 47 1016.6
20260509170006 65 353 2.0 6.0 0.00 0.00 0.00 47 1016.8
20260509164506 65 53 4.0 7.0 0.00 0.00 0.00 48 1016.6
20260509164006 65 346 5.0 8.0 0.00 0.00 0.00 48 1016.7
20260509163506 65 346 4.0 7.0 0.00 0.00 0.00 48 1016.6
20260509160005 64 355 5.0 7.0 0.00 0.00 0.00 46 1016.7
20260509155505 65 359 4.0 9.0 0.00 0.00 0.00 47 1016.6
20260509155007 65 348 6.0 9.0 0.00 0.00 0.00 47 1016.6
20260509145505 65 24 6.0 9.0 0.00 0.00 0.00 47 1016.8
20260509145006 65 345 5.0 9.0 0.00 0.00 0.00 48 1016.8
20260509144504 66 6 7.0 13.0 0.00 0.00 0.00 46 1016.7
20260509142505 66 47 3.0 7.0 0.00 0.00 0.00 46 1016.8
20260509142005 66 45 3.0 12.0 0.00 0.00 0.00 46 1016.8
20260509140006 65 17 3.0 9.0 0.00 0.00 0.00 45 1017.1
20260509135505 65 54 4.0 9.0 0.00 0.00 0.00 46 1017.1
20260509134005 64 3 3.0 9.0 0.00 0.00 0.00 48 1017.3
20260509133505 65 3 3.0 7.0 0.00 0.00 0.00 46 1017.3
20260509133005 65 6 5.0 8.0 0.00 0.00 0.00 47 1017.4
20260509132505 64 4 3.0 8.0 0.00 0.00 0.00 48 1017.4
20260509132005 64 3 3.0 7.0 0.00 0.00 0.00 48 1017.5
20260509131505 64 3 5.0 10.0 0.00 0.00 0.00 48 1017.5
20260509131005 64 342 5.0 10.0 0.00 0.00 0.00 49 1017.6
20260509130005 65 47 3.0 7.0 0.00 0.00 0.00 44 1017.7
20260509125504 65 333 3.0 6.0 0.00 0.00 0.00 44 1017.7
20260509125005 65 90 3.0 8.0 0.00 0.00 0.00 45 1017.8
20260509124505 66 317 5.0 8.0 0.00 0.00 0.00 44 1017.8
20260509124005 66 0 2.0 7.0 0.00 0.00 0.00 45 1017.8
20260509123505 66 149 1.0 5.0 0.00 0.00 0.00 46 1017.8
20260509115005 63 0 3.0 7.0 0.00 0.00 0.00 53 1018.2
20260509114504 63 0 4.0 9.0 0.00 0.00 0.00 53 1018.3
20260509114005 64 340 5.0 9.0 0.00 0.00 0.00 51 1018.3
20260509112504 64 115 1.0 3.0 0.00 0.00 0.00 51 1018.4
20260509112005 64 115 3.0 7.0 0.00 0.00 0.00 51 1018.4
20260509111505 63 12 1.0 5.0 0.00 0.00 0.00 54 1018.5
20260509111006 63 11 2.0 9.0 0.00 0.00 0.00 52 1018.6
20260509103504 63 119 3.0 9.0 0.00 0.00 0.00 55 1018.9
20260509103004 63 71 4.0 9.0 0.00 0.00 0.00 57 1018.9
20260509102504 62 75 2.0 5.0 0.00 0.00 0.00 56 1018.9
20260509102004 62 72 2.0 5.0 0.00 0.00 0.00 57 1018.9
20260509101504 62 76 2.0 8.0 0.00 0.00 0.00 58 1018.9
20260509101005 62 46 1.0 7.0 0.00 0.00 0.00 58 1019.0
20260509100005 62 125 3.0 7.0 0.00 0.00 0.00 58 1019.0
20260509095504 62 71 3.0 8.0 0.00 0.00 0.00 58 1019.0
20260509095005 62 0 4.0 7.0 0.00 0.00 0.00 58 1019.0
20260509094505 62 98 3.0 8.0 0.00 0.00 0.00 58 1019.0
20260509094005 62 106 1.0 7.0 0.00 0.00 0.00 59 1019.1
20260509093504 62 114 3.0 5.0 0.00 0.00 0.00 58 1019.1
20260509093004 62 66 3.0 6.0 0.00 0.00 0.00 59 1019.1
20260509092504 62 15 4.0 13.0 0.00 0.00 0.00 61 1019.1
20260509092004 61 118 3.0 8.0 0.00 0.00 0.00 61 1019.2
20260509082508 59 105 5.0 10.0 0.00 0.00 0.00 67 1019.3
20260509082008 59 110 5.0 9.0 0.00 0.00 0.00 66 1019.2
20260509081508 59 132 3.0 7.0 0.00 0.00 0.00 65 1019.2
20260509081010 59 150 3.0 8.0 0.00 0.00 0.00 67 1019.3
20260509075008 58 104 4.0 13.0 0.00 0.00 0.00 69 1019.3
20260509074509 58 119 5.0 12.0 0.00 0.00 0.00 70 1019.3
20260509074009 58 81 5.0 12.0 0.00 0.00 0.00 71 1019.3
20260509073508 58 103 2.0 10.0 0.00 0.00 0.00 72 1019.2
20260509073009 58 103 1.0 8.0 0.00 0.00 0.00 72 1019.3
20260509072508 57 105 1.0 3.0 0.00 0.00 0.00 73 1019.4
20260509072008 57 105 1.0 3.0 0.00 0.00 0.00 75 1019.4
20260509071508 56 105 1.0 5.0 0.00 0.00 0.00 77 1019.4
20260509071009 55 105 2.0 8.0 0.00 0.00 0.00 77 1019.4
20260509061009 51 103 4.0 8.0 0.00 0.00 0.00 82 1019.4
20260509055512 51 22 1.0 5.0 0.00 0.00 0.00 83 1019.4
20260509055008 51 20 0.0 2.0 0.00 0.00 0.00 85 1019.4
20260509051507 48 20 0.0 2.0 0.00 0.00 0.00 89 1019.2
20260509051008 47 20 0.0 1.0 0.00 0.00 0.00 90 1019.1
20260509050008 47 20 0.0 0.0 0.00 0.00 0.00 89 1019.1
20260509045507 47 20 0.0 0.0 0.00 0.00 0.00 89 1019.0
20260509045007 47 20 0.0 0.0 0.00 0.00 0.00 89 1019.0
20260509042507 46 340 0.0 0.0 0.00 0.00 0.00 89 1018.9
20260509042007 46 340 0.0 0.0 0.00 0.00 0.00 89 1018.9
20260509041507 46 340 0.0 0.0 0.00 0.00 0.00 89 1018.9
20260509041007 46 340 0.0 0.0 0.00 0.00 0.00 88 1018.9
20260509040007 47 340 0.0 0.0 0.00 0.00 0.00 89 1018.8
20260509035507 47 340 0.0 0.0 0.00 0.00 0.00 88 1018.9
20260509035008 47 340 0.0 0.0 0.00 0.00 0.00 88 1018.8
20260509034507 47 340 0.0 0.0 0.00 0.00 0.00 88 1018.8
20260509034008 47 340 0.0 0.0 0.00 0.00 0.00 88 1018.9
20260509033507 47 340 0.0 0.0 0.00 0.00 0.00 88 1018.9
20260509031008 47 340 0.0 0.0 0.00 0.00 0.00 88 1018.9
20260509024008 48 340 0.0 0.0 0.00 0.00 0.00 88 1018.9
20260509023508 48 340 0.0 1.0 0.00 0.00 0.00 88 1018.9
20260509023008 48 340 0.0 0.0 0.00 0.00 0.00 88 1018.9
20260509022507 48 340 0.0 0.0 0.00 0.00 0.00 88 1018.9
20260509022007 48 340 0.0 0.0 0.00 0.00 0.00 88 1018.9
20260509021507 48 340 0.0 0.0 0.00 0.00 0.00 88 1018.9
20260509021008 48 340 0.0 0.0 0.00 0.00 0.00 88 1018.9
20260509020007 48 340 0.0 0.0 0.00 0.00 0.00 88 1018.9
20260509015007 48 340 0.0 0.0 0.00 0.00 0.00 87 1018.9
20260509010007 49 340 0.0 0.0 0.00 0.00 0.00 85 1019.2
20260509004008 50 340 0.0 0.0 0.00 0.00 0.00 84 1019.0
20260509003507 50 340 0.0 0.0 0.00 0.00 0.00 83 1019.1
20260509003007 50 340 0.0 0.0 0.00 0.00 0.00 83 1019.0
20260509002507 50 340 0.0 0.0 0.00 0.00 0.00 83 1018.9
20260509000006 51 340 0.0 0.0 0.00 0.00 0.00 82 1018.9
20260508235507 51 340 0.0 0.0 0.00 0.00 0.00 83 1018.9
20260508234007 51 340 0.0 0.0 0.00 0.00 0.00 84 1018.9
20260508233508 51 340 0.0 0.0 0.00 0.00 0.00 84 1018.9
20260508233007 51 340 0.0 0.0 0.00 0.00 0.00 85 1018.9
20260508232507 51 340 0.0 0.0 0.00 0.00 0.00 85 1018.9
20260508232007 51 340 0.0 0.0 0.00 0.00 0.00 85 1018.9
20260508230007 51 340 0.0 0.0 0.00 0.00 0.00 83 1018.9
20260508225506 51 340 0.0 0.0 0.00 0.00 0.00 83 1018.8
20260508225007 51 340 0.0 0.0 0.00 0.00 0.00 83 1018.9
20260508224507 51 340 0.0 0.0 0.00 0.00 0.00 82 1018.9
20260508224007 51 340 0.0 0.0 0.00 0.00 0.00 82 1018.9
20260508223507 51 340 0.0 0.0 0.00 0.00 0.00 81 1018.9
20260508223006 52 340 0.0 0.0 0.00 0.00 0.00 81 1018.9